Location: Cormont
(50.5693°N, 1.7416°E)
Time: 12:18:35
(UTC+00:00)

YAOGAN 6 - Pass Details

Date: 21 October 2019
Orbit: 465 x 506 km, 97.0° (Epoch: 20 November)

Event Time Altitude Azimuth Distance (km) Brightness Sun altitude
Rises 17:26:39 0° 146° (SE) 2,578 6.0 -6.6°
Reaches altitude 10° 17:28:49 10° 138° (SE) 1,694 5.0 -6.9°
Maximum altitude 17:32:13 37° 70° (ENE) 780 3.1 -7.4°
Drops below altitude 10° 17:35:34 10° 2° (N) 1,686 5.2 -8.0°
Sets 17:37:44 0° 354° (N) 2,565 6.2 -8.3°
